1517256000.0,6480,9.81,73486.8,-5.57,-6.81,-6.81,0,*6D
1517256001.19,6481,9.81,73486.3,-5.55,-6.77,-6.77,0,*6E
1517256002.41,6482,9.81,73486.3,-5.57,-6.81,-6.89,0,*67
1517256003.64,6483,9.81,73484.3,-5.57,-6.89,-6.81,0,*66
1517256004.85,6484,9.81,73470.5,-5.57,-6.69,-6.81,0,*6F
1517256006.07,6485,9.81,73450.8,-5.57,-6.55,-6.69,0,*67
1517256007.26,6486,9.81,73446.3,-5.55,-6.51,-6.47,0,*6E
1517256008.49,6487,9.81,73442.8,-5.57,-6.51,-6.51,0,*6A
1517256009.68,6488,9.81,73442.3,-5.55,-6.47,-6.47,0,*67
1517256010.9,6489,9.81,73442.3,-5.57,-6.55,-6.55,0,*64
1517256012.09,6490,9.81,73432.5,-5.55,-6.59,-6.51,0,*66
1517256013.34,6491,9.81,73436.8,-5.57,-6.55,-6.63,0,*68
1517256014.55,6492,9.81,73440.8,-5.57,-6.69,-6.77,0,*61
1517256015.77,6493,9.81,73448.0,-5.57,-6.77,-6.81,0,*66
1517256016.99,6494,9.81,73444.0,-5.57,-6.77,-6.89,0,*69
1517256018.21,6495,9.81,73436.0,-5.57,-6.89,-6.81,0,*61
1517256019.43,6496,9.81,73424.3,-5.57,-6.81,-6.89,0,*62
1517256020.65,6497,9.81,73422.8,-5.57,-6.81,-6.89,0,*63
1517256021.87,6498,9.81,73422.0,-5.57,-6.77,-6.77,0,*64
1517256023.08,6499,9.81,73444.5,-5.57,-6.55,-6.69,0,*6A
1517256024.33,6500,9.81,73462.8,-5.57,-6.51,-6.63,0,*65
1517256025.55,6501,9.81,73472.0,-5.57,-6.55,-6.55,0,*65
1517256026.8,6502,9.81,73468.8,-5.57,-6.55,-6.63,0,*63
1517256028.04,6503,9.81,73438.3,-5.57,-6.55,-6.63,0,*62
1517256029.26,6504,9.81,73302.0,-5.57,-6.43,-6.43,0,*60
1517256030.52,6505,9.81,73360.0,-5.57,-6.63,-6.63,0,*61
1517256031.73,6506,9.81,73440.8,-5.55,-6.63,-6.59,0,*69
1517256032.94,6507,9.81,73422.8,-5.57,-6.69,-6.69,0,*63
1517256034.17,6508,9.81,73388.3,-5.57,-6.63,-6.69,0,*66
1517256035.36,6509,9.81,73384.8,-5.55,-6.59,-6.59,0,*6F
1517256036.58,6510,9.81,73402.8,-5.57,-6.69,-6.77,0,*6A
1517256037.79,6511,9.81,73426.8,-5.57,-6.69,-6.77,0,*6B
1517256039.0,6512,9.81,73456.5,-5.57,-6.77,-6.69,0,*68
1517256040.23,6513,9.81,73494.3,-5.57,-6.81,-6.81,0,*66
1517256041.42,6514,9.81,73488.5,-5.55,-6.77,-6.77,0,*63
1517256042.64,6515,9.81,73446.5,-5.57,-6.89,-6.81,0,*68
1517256043.86,6516,9.81,73440.8,-5.57,-6.81,-6.89,0,*6B
1517256045.09,6517,9.81,73434.5,-5.57,-6.81,-6.81,0,*62
1517256046.31,6518,9.81,73434.8,-5.57,-6.89,-6.81,0,*65
1517256047.54,6519,9.81,73426.8,-5.57,-6.81,-6.81,0,*6C
1517256048.76,6520,9.81,73420.5,-5.57,-6.89,-6.81,0,*6E
1517256049.98,6521,9.81,73418.3,-5.57,-6.81,-6.89,0,*6F
1517256051.2,6522,9.81,73422.3,-5.57,-6.89,-6.81,0,*6C
1517256052.42,6523,9.81,73430.0,-5.57,-6.81,-6.89,0,*6D
1517256053.64,6524,9.81,73442.8,-5.57,-6.89,-6.89,0,*62
1517256054.86,6525,9.81,73464.5,-5.57,-6.81,-6.89,0,*6B
1517256056.1,6526,9.81,73420.3,-5.57,-6.81,-6.93,0,*63
1517256057.31,6527,9.81,73416.3,-5.57,-6.69,-6.69,0,*61
1517256058.55,6528,9.81,73388.0,-5.57,-6.63,-6.55,0,*6B
1517256059.77,6529,9.81,73354.0,-5.57,-6.51,-6.51,0,*6F
1517256060.96,6530,9.81,73226.5,-5.55,-6.31,-6.39,0,*6D
1517256062.17,6531,9.81,73242.8,-5.57,-6.39,-6.43,0,*6B
1517256063.39,6532,9.81,73292.5,-5.57,-6.39,-6.39,0,*65
1517256064.58,6533,9.81,73310.0,-5.55,-6.47,-6.43,0,*62
1517256065.77,6534,9.81,73352.0,-5.55,-6.43,-6.43,0,*61
1517256066.99,6535,9.81,73394.0,-5.57,-6.55,-6.51,0,*66
1517256068.25,6536,9.81,73428.3,-5.57,-6.63,-6.63,0,*61
1517256069.45,6537,9.81,73432.0,-5.55,-6.59,-6.59,0,*62
1517256070.66,6538,9.81,73450.5,-5.55,-6.59,-6.63,0,*64
1517256071.88,6539,9.81,73450.3,-5.57,-6.77,-6.73,0,*6A
1517256073.11,6540,9.81,73460.8,-5.57,-6.77,-6.81,0,*69
1517256074.3,6541,9.81,73462.3,-5.55,-6.77,-6.85,0,*6E
1517256075.49,6542,9.81,73478.8,-5.55,-6.77,-6.85,0,*6D
1517256076.71,6543,9.81,73480.5,-5.57,-6.89,-6.89,0,*63
1517256077.92,6544,9.81,73480.3,-5.55,-6.85,-6.97,0,*65
1517256079.11,6545,9.81,73480.0,-5.55,-6.89,-6.89,0,*67
1517256080.37,6546,9.81,73484.5,-5.57,-7.01,-7.01,0,*66
1517256081.63,6547,9.81,73464.8,-5.57,-7.01,-7.05,0,*63
1517256082.87,6548,9.81,73464.8,-5.57,-7.05,-7.15,0,*69
1517256084.09,6549,9.81,73474.3,-5.57,-7.15,-7.15,0,*69
1517256085.35,6550,9.81,73460.5,-5.57,-7.05,-7.05,0,*61
1517256086.58,6551,9.81,73456.0,-5.61,-7.11,-7.11,0,*65
1517256087.8,6552,9.81,73452.8,-5.63,-7.05,-7.11,0,*61
1517256089.05,6553,9.81,73460.0,-5.61,-7.05,-7.19,0,*6A
1517256090.28,6554,9.81,73458.3,-5.61,-7.19,-7.19,0,*60
1517256091.5,6555,9.81,73458.5,-5.61,-7.11,-7.19,0,*69
1517256092.72,6556,9.81,73460.8,-5.57,-7.15,-7.15,0,*67
1517256093.95,6557,9.81,73480.8,-5.61,-7.19,-7.19,0,*63
1517256095.17,6558,9.81,73490.8,-5.61,-7.19,-7.19,0,*6C
1517256096.37,6559,9.81,73488.8,-5.63,-7.23,-7.23,0,*6F
1517256097.59,6560,9.81,73488.5,-5.61,-7.23,-7.23,0,*67
1517256098.79,6561,9.81,73474.5,-5.63,-7.19,-7.23,0,*6D
1517256100.0,6562,9.81,73466.0,-5.63,-7.19,-7.11,0,*6F
1517256101.24,6563,9.81,73468.5,-5.63,-6.97,-7.05,0,*6C
1517256102.48,6564,9.81,73482.8,-5.61,-7.05,-7.11,0,*66
1517256103.75,6565,9.81,73494.3,-5.61,-7.05,-6.97,0,*68
1517256104.99,6566,9.81,73504.3,-5.63,-7.05,-6.97,0,*69
1517256106.24,6567,9.81,73516.5,-5.63,-6.97,-6.97,0,*62
1517256107.51,6568,9.81,73508.0,-5.61,-6.97,-6.97,0,*6F
1517256108.71,6569,9.81,73498.8,-5.63,-6.81,-6.85,0,*68
1517256109.9,6570,9.81,73502.8,-5.63,-6.73,-6.81,0,*69
1517256111.12,6571,9.81,73502.3,-5.63,-6.85,-6.93,0,*62
1517256112.34,6572,9.81,73496.0,-5.63,-6.93,-6.85,0,*61
1517256113.56,6573,9.81,73482.0,-5.61,-6.85,-6.85,0,*65
1517256114.78,6574,9.81,73476.3,-5.61,-6.73,-6.81,0,*6F
1517256115.98,6575,9.81,73482.3,-5.63,-6.85,-6.81,0,*65
1517256117.18,6576,9.81,73456.0,-5.63,-6.73,-6.81,0,*6F
1517256118.38,6577,9.81,73420.8,-5.63,-6.81,-6.85,0,*67
1517256119.58,6578,9.81,73432.3,-5.63,-6.81,-6.81,0,*6C
1517256120.8,6579,9.81,73432.0,-5.61,-6.73,-6.81,0,*62
1517256122.02,6580,9.81,73426.3,-5.61,-6.69,-6.73,0,*62
1517256123.21,6581,9.81,73422.0,-5.63,-6.69,-6.73,0,*61
1517256124.41,6582,9.81,73428.0,-5.63,-6.81,-6.81,0,*69
1517256125.61,6583,9.81,73434.3,-5.63,-6.81,-6.81,0,*68
1517256126.83,6584,9.81,73426.3,-5.61,-6.85,-6.85,0,*6D
1517256128.05,6585,9.81,73418.8,-5.63,-6.85,-6.93,0,*69
1517256129.26,6586,9.81,73426.8,-5.61,-6.85,-6.85,0,*6F
1517256130.48,6587,9.81,73434.8,-5.61,-6.85,-6.85,0,*6E
1517256131.67,6588,9.81,73442.8,-5.63,-6.85,-6.85,0,*63
1517256132.9,6589,9.81,73428.5,-5.61,-6.81,-6.85,0,*64
1517256134.09,6590,9.81,73450.3,-5.63,-6.85,-6.85,0,*6A
1517256135.33,6591,9.81,73466.8,-5.63,-6.93,-6.93,0,*6B
1517256136.58,6592,9.81,73492.5,-5.61,-6.85,-6.93,0,*6D
1517256137.82,6593,9.81,73498.5,-5.63,-6.93,-6.93,0,*69
1517256139.07,6594,9.81,73528.5,-5.63,-6.93,-6.93,0,*6E
1517256140.31,6595,9.81,73548.0,-5.63,-6.93,-6.93,0,*6F
1517256141.53,6596,9.81,73522.5,-5.63,-6.85,-6.93,0,*6B
1517256142.75,6597,9.81,73508.5,-5.63,-6.85,-6.97,0,*6E
1517256143.97,6598,9.81,73496.5,-5.61,-6.85,-6.81,0,*64
1517256145.2,6599,9.81,73486.0,-5.61,-6.73,-6.81,0,*6C
1517256146.38,6600,9.81,73482.3,-5.63,-6.69,-6.69,0,*60
1517256147.6,6601,9.81,73486.3,-5.61,-6.69,-6.59,0,*60
1517256148.82,6602,9.81,73484.3,-5.61,-6.59,-6.59,0,*60
1517256150.04,6603,9.81,73476.3,-5.61,-6.59,-6.69,0,*62
1517256151.26,6604,9.81,73484.8,-5.61,-6.59,-6.59,0,*66
1517256152.45,6605,9.81,73480.0,-5.63,-6.59,-6.69,0,*66
1517256153.67,6606,9.81,73478.3,-5.61,-6.69,-6.69,0,*64
1517256154.88,6607,9.81,73470.3,-5.61,-6.59,-6.69,0,*66
1517256156.09,6608,9.81,73466.3,-5.61,-6.69,-6.69,0,*6A
1517256157.3,6609,9.81,73474.5,-5.63,-6.81,-6.81,0,*69
1517256158.49,6610,9.81,73460.5,-5.63,-6.73,-6.73,0,*61
1517256159.71,6611,9.81,73430.0,-5.61,-6.73,-6.73,0,*62
1517256160.9,6612,9.81,73430.0,-5.63,-6.73,-6.81,0,*6E
1517256162.13,6613,9.81,73462.0,-5.61,-6.81,-6.81,0,*60
1517256163.33,6614,9.81,73488.3,-5.63,-6.81,-6.81,0,*65
1517256164.56,6615,9.81,73480.8,-5.61,-6.81,-6.85,0,*62
1517256165.78,6616,9.81,73448.8,-5.61,-6.81,-6.85,0,*61
1517256167.0,6617,9.81,73488.0,-5.61,-6.73,-6.81,0,*69
1517256168.23,6618,9.81,73478.8,-5.61,-6.73,-6.81,0,*66
1517256169.45,6619,9.81,73462.0,-5.61,-6.59,-6.73,0,*62
1517256170.67,6620,9.81,73426.3,-5.61,-6.55,-6.59,0,*6C
1517256171.89,6621,9.81,73380.5,-5.61,-6.47,-6.47,0,*61
1517256173.11,6622,9.81,73386.5,-5.61,-6.47,-6.47,0,*62
1517256174.33,6623,9.81,73396.8,-5.61,-6.47,-6.47,0,*63
1517256175.55,6624,9.81,73412.8,-5.61,-6.39,-6.47,0,*6D
1517256176.78,6625,9.81,73418.8,-5.57,-6.35,-6.35,0,*60
1517256177.97,6626,9.81,73432.3,-5.55,-6.35,-6.35,0,*61
1517256179.19,6627,9.81,73438.3,-5.57,-6.39,-6.43,0,*6F
1517256180.41,6628,9.81,73452.0,-5.57,-6.51,-6.51,0,*6D
1517256181.63,6629,9.81,73440.3,-5.57,-6.43,-6.51,0,*6F
1517256182.82,6630,9.81,73446.0,-5.55,-6.39,-6.47,0,*6F
1517256184.02,6631,9.81,73438.5,-5.55,-6.51,-6.51,0,*67
1517256185.28,6632,9.81,73446.0,-5.57,-6.63,-6.63,0,*66
1517256186.51,6633,9.81,73440.8,-5.57,-6.63,-6.69,0,*6D
1517256187.72,6634,9.81,73420.8,-5.57,-6.69,-6.69,0,*60
1517256188.93,6635,9.81,73402.0,-5.55,-6.63,-6.73,0,*62
1517256190.12,6636,9.81,73388.8,-5.55,-6.77,-6.85,0,*6D
1517256191.34,6637,9.81,73400.5,-5.57,-6.81,-6.89,0,*6B
1517256192.58,6638,9.81,73402.0,-5.55,-6.93,-7.01,0,*64
1517256193.77,6639,9.81,73406.0,-5.55,-6.89,-6.89,0,*6F
1517256195.04,6640,9.81,73412.8,-5.57,-7.01,-6.93,0,*69
1517256196.31,6641,9.81,73418.5,-5.57,-6.93,-7.01,0,*68
1517256197.56,6642,9.81,73426.3,-5.57,-7.01,-7.05,0,*65
1517256198.83,6643,9.81,73434.0,-5.57,-7.01,-7.01,0,*60
1517256200.09,6644,9.81,73442.0,-5.57,-7.01,-7.05,0,*63
1517256201.35,6645,9.81,73450.3,-5.57,-7.05,-7.05,0,*66
1517256202.61,6646,9.81,73462.0,-5.57,-7.01,-6.93,0,*6F
1517256203.88,6647,9.81,73464.5,-5.57,-6.93,-7.01,0,*6E
1517256205.15,6648,9.81,73462.5,-5.57,-7.05,-7.01,0,*6F
1517256206.41,6649,9.81,73470.0,-5.57,-7.05,-7.05,0,*6A
1517256207.66,6650,9.81,73478.8,-5.61,-6.97,-7.11,0,*68
1517256208.91,6651,9.81,73492.8,-5.61,-7.05,-7.11,0,*63
1517256210.16,6652,9.81,73496.5,-5.61,-7.05,-7.11,0,*60
1517256211.42,6653,9.81,73500.5,-5.61,-7.05,-7.05,0,*64
1517256212.64,6654,9.81,73520.3,-5.63,-7.05,-7.11,0,*64
1517256213.9,6655,9.81,73504.3,-5.61,-7.05,-7.05,0,*62
1517256215.15,6656,9.81,73500.3,-5.63,-6.97,-6.97,0,*63
1517256216.39,6657,9.81,73492.0,-5.61,-6.93,-6.85,0,*67
1517256217.59,6658,9.81,73494.8,-5.63,-6.81,-6.85,0,*69
1517256218.81,6659,9.81,73496.8,-5.61,-6.73,-6.73,0,*6E
1517256220.02,6660,9.81,73476.0,-5.61,-6.73,-6.73,0,*64
1517256221.24,6661,9.81,73462.0,-5.61,-6.59,-6.73,0,*6D
1517256222.46,6662,9.81,73442.0,-5.61,-6.69,-6.73,0,*6D
1517256223.68,6663,9.81,73432.5,-5.61,-6.59,-6.59,0,*67
1517256224.9,6664,9.81,73424.0,-5.61,-6.55,-6.55,0,*60
1517256226.12,6665,9.81,73442.0,-5.61,-6.47,-6.47,0,*61
1517256227.35,6666,9.81,73424.8,-5.61,-6.47,-6.47,0,*62
1517256228.57,6667,9.81,73390.3,-5.61,-6.47,-6.47,0,*63
1517256229.79,6668,9.81,73402.5,-5.61,-6.47,-6.55,0,*6F
1517256231.01,6669,9.81,73402.5,-5.61,-6.47,-6.47,0,*6D
1517256232.19,6670,9.81,73436.3,-5.55,-6.39,-6.39,0,*62
1517256233.41,6671,9.81,73418.0,-5.57,-6.39,-6.43,0,*6C
1517256234.63,6672,9.81,73418.0,-5.57,-6.43,-6.51,0,*61
1517256235.85,6673,9.81,73416.5,-5.57,-6.51,-6.43,0,*60
1517256237.07,6674,9.81,73420.8,-5.61,-6.55,-6.55,0,*61
1517256238.26,6675,9.81,73418.8,-5.55,-6.47,-6.47,0,*67
1517256239.51,6676,9.81,73420.8,-5.57,-6.55,-6.63,0,*63
1517256240.73,6677,9.81,73402.8,-5.57,-6.51,-6.51,0,*67
1517256241.93,6678,9.81,73412.5,-5.55,-6.51,-6.51,0,*6A
1517256243.15,6679,9.81,73408.3,-5.57,-6.51,-6.55,0,*6D
1517256244.39,6680,9.81,73396.5,-5.57,-6.55,-6.63,0,*6A
1517256245.66,6681,9.81,73412.0,-5.57,-6.63,-6.63,0,*6E
1517256246.88,6682,9.81,73424.0,-5.57,-6.77,-6.77,0,*6D
1517256248.1,6683,9.81,73384.5,-5.57,-6.77,-6.81,0,*65
1517256249.29,6684,9.81,73362.8,-5.55,-6.77,-6.85,0,*64
1517256250.48,6685,9.81,73416.3,-5.55,-6.77,-6.85,0,*65
1517256251.71,6686,9.81,73472.5,-5.57,-6.81,-6.81,0,*69
1517256252.95,6687,9.81,73354.0,-5.57,-6.63,-6.77,0,*6D
1517256254.14,6688,9.81,73354.8,-5.55,-6.59,-6.59,0,*65
1517256255.35,6689,9.81,73384.8,-5.55,-6.63,-6.73,0,*65
1517256256.57,6690,9.81,73388.3,-5.57,-6.77,-6.77,0,*6E
1517256257.75,6691,9.81,73348.5,-5.55,-6.73,-6.73,0,*6D
1517256258.98,6692,9.81,73456.0,-5.53,-6.77,-6.77,0,*68
1517256260.22,6693,9.81,73430.3,-5.57,-6.89,-6.93,0,*66
1517256261.44,6694,9.81,73434.8,-5.57,-6.81,-6.89,0,*62
1517256262.68,6695,9.81,73432.5,-5.57,-6.81,-7.01,0,*62
1517256263.92,6696,9.81,73454.8,-5.57,-6.89,-6.93,0,*63
1517256265.19,6697,9.81,73432.5,-5.57,-6.93,-7.01,0,*63
1517256266.38,6698,9.81,73416.0,-5.55,-6.85,-6.89,0,*68
1517256267.62,6699,9.81,73408.8,-5.57,-6.89,-7.01,0,*66
1517256268.86,6700,9.81,73408.3,-5.57,-6.89,-6.93,0,*6D
1517256270.05,6701,9.81,73414.8,-5.55,-6.89,-6.89,0,*65
1517256271.32,6702,9.81,73412.3,-5.57,-6.93,-6.93,0,*64
1517256272.56,6703,9.81,73430.0,-5.55,-6.97,-6.97,0,*67
1517256273.83,6704,9.81,73418.5,-5.57,-6.93,-6.93,0,*62
1517256275.1,6705,9.81,73430.3,-5.57,-6.93,-7.01,0,*69
1517256276.36,6706,9.81,73438.5,-5.57,-7.01,-7.05,0,*64
1517256277.6,6707,9.81,73440.5,-5.57,-7.01,-7.15,0,*64
1517256278.86,6708,9.81,73452.3,-5.57,-7.01,-7.01,0,*6E
1517256280.13,6709,9.81,73416.8,-5.57,-6.93,-6.93,0,*6F
1517256281.4,6710,9.81,73410.5,-5.61,-6.97,-7.05,0,*68
1517256282.64,6711,9.81,73416.3,-5.63,-7.05,-6.97,0,*6B
1517256283.89,6712,9.81,73420.5,-5.61,-7.05,-7.11,0,*65
1517256285.11,6713,9.81,73446.0,-5.61,-7.11,-7.19,0,*69
1517256286.34,6714,9.81,73444.3,-5.61,-7.11,-7.19,0,*6E
1517256287.57,6715,9.81,73444.5,-5.61,-7.11,-7.11,0,*67
1517256288.8,6716,9.81,73470.3,-5.61,-7.11,-7.11,0,*64
1517256290.03,6717,9.81,73478.5,-5.61,-7.19,-7.19,0,*65
1517256291.25,6718,9.81,73482.3,-5.61,-7.11,-7.19,0,*62
1517256292.47,6719,9.81,73482.3,-5.57,-7.15,-7.15,0,*6E
1517256293.67,6720,9.81,73482.0,-5.63,-7.11,-7.11,0,*63
1517256294.87,6721,9.81,73482.8,-5.63,-7.19,-7.19,0,*62
1517256296.1,6722,9.81,73480.3,-5.61,-7.19,-7.19,0,*63
1517256297.3,6723,9.81,73480.3,-5.63,-7.19,-7.23,0,*69
1517256298.5,6724,9.81,73476.0,-5.63,-7.19,-7.23,0,*6E
1517256299.7,6725,9.81,73474.8,-5.63,-7.19,-7.23,0,*6F
1517256300.9,6726,9.81,73472.5,-5.63,-7.19,-7.23,0,*6C
1517256302.1,6727,9.81,73470.8,-5.63,-7.19,-7.23,0,*6D
1517256303.3,6728,9.81,73478.5,-5.63,-7.23,-7.23,0,*6B
1517256304.5,6729,9.88,73482.0,-5.63,-7.23,-7.23,0,*6A
1517256305.76,6730,9.81,73478.0,-5.65,-7.27,-7.27,0,*64
1517256307.02,6731,9.81,73476.0,-5.65,-7.27,-7.27,0,*65
1517256308.29,6732,9.81,73480.8,-5.65,-7.35,-7.35,0,*66
1517256309.53,6733,9.81,73480.8,-5.67,-7.35,-7.39,0,*69
1517256310.79,6734,9.81,73482.3,-5.65,-7.35,-7.39,0,*6C
1517256312.05,6735,9.81,73482.0,-5.65,-7.39,-7.39,0,*61
1517256313.29,6736,9.81,73482.8,-5.67,-7.27,-7.39,0,*6F
1517256314.53,6737,9.81,73482.0,-5.67,-7.27,-7.39,0,*6E
1517256315.76,6738,9.81,73478.8,-5.67,-7.27,-7.27,0,*6E
1517256317.03,6739,9.81,73480.0,-5.65,-7.27,-7.35,0,*6E
1517256318.27,6740,9.81,73480.8,-5.67,-7.27,-7.35,0,*62
1517256319.5,6741,9.81,73476.3,-5.67,-7.35,-7.35,0,*60
1517256320.74,6742,9.81,73476.5,-5.67,-7.35,-7.39,0,*6F
1517256321.98,6743,9.81,73482.3,-5.67,-7.39,-7.39,0,*62
1517256323.21,6744,9.81,73484.3,-5.67,-7.39,-7.43,0,*68
1517256324.47,6745,9.81,73482.3,-5.69,-7.39,-7.39,0,*6A
1517256325.69,6746,9.81,73478.5,-5.71,-7.43,-7.49,0,*6A
1517256326.96,6747,9.81,73474.0,-5.69,-7.43,-7.43,0,*68
1517256328.15,6748,9.81,73482.3,-5.71,-7.49,-7.49,0,*6E
1517256329.42,6749,9.81,73488.0,-5.69,-7.43,-7.43,0,*66
1517256330.67,6750,9.81,73486.0,-5.71,-7.43,-7.43,0,*67
1517256331.92,6751,9.81,73480.0,-5.69,-7.23,-7.27,0,*6B
1517256333.14,6752,9.81,73478.3,-5.71,-7.05,-7.15,0,*64
1517256334.38,6753,9.81,73476.0,-5.69,-7.01,-7.11,0,*6C
1517256335.61,6754,9.81,73474.0,-5.69,-7.11,-7.11,0,*6A
1517256336.85,6755,9.81,73472.0,-5.69,-7.11,-7.01,0,*6A
1517256338.1,6756,9.81,73466.8,-5.69,-6.97,-6.89,0,*67
1517256339.36,6757,9.81,73464.0,-5.69,-6.97,-6.97,0,*69
1517256340.58,6758,9.81,73466.3,-5.69,-6.89,-6.89,0,*66
1517256341.82,6759,9.81,73474.8,-5.71,-6.93,-7.01,0,*64
1517256343.07,6760,9.81,73488.3,-5.69,-7.01,-7.11,0,*6C
1517256344.29,6761,9.81,73492.5,-5.71,-7.05,-7.15,0,*64
1517256345.53,6762,9.81,73496.3,-5.71,-7.05,-7.05,0,*66
1517256346.76,6763,9.81,73492.3,-5.71,-7.05,-7.05,0,*67
1517256348.01,6764,9.81,73490.3,-5.69,-7.01,-7.15,0,*6C
1517256349.25,6765,9.81,73494.8,-5.69,-7.01,-7.11,0,*69
1517256350.52,6766,9.81,73488.5,-5.69,-6.97,-6.97,0,*6B
1517256351.76,6767,9.81,73488.5,-5.69,-6.89,-7.01,0,*6B
1517256352.99,6768,9.81,73490.3,-5.71,-7.01,-7.05,0,*68
1517256354.21,6769,9.81,73498.8,-5.69,-6.89,-6.89,0,*64
1517256355.42,6770,9.81,73462.8,-5.69,-6.85,-6.77,0,*61
1517256356.64,6771,9.81,73464.5,-5.69,-6.73,-6.85,0,*64
1517256357.86,6772,9.81,73474.8,-5.69,-6.77,-6.77,0,*6E
1517256359.05,6773,9.81,73474.3,-5.71,-6.77,-6.77,0,*66
1517256360.27,6774,9.81,73466.3,-5.69,-6.73,-6.73,0,*68
1517256361.5,6775,9.81,73470.5,-5.69,-6.63,-6.73,0,*68
1517256362.72,6776,9.81,73464.0,-5.69,-6.77,-6.73,0,*6E
1517256363.93,6777,9.81,73454.3,-5.69,-6.73,-6.77,0,*6F
1517256365.15,6778,9.81,73450.3,-5.65,-6.73,-6.77,0,*6C
1517256366.34,6779,9.81,73440.3,-5.67,-6.73,-6.77,0,*6F
1517256367.52,6780,9.81,73410.3,-5.67,-6.73,-6.73,0,*6D
1517256368.76,6781,9.81,73404.3,-5.67,-6.63,-6.63,0,*6C
1517256369.98,6782,9.81,73408.3,-5.69,-6.51,-6.51,0,*61
1517256371.2,6783,9.81,73384.0,-5.69,-6.51,-6.51,0,*60
1517256372.43,6784,9.81,73374.5,-5.69,-6.51,-6.47,0,*60
1517256373.62,6785,9.81,73376.5,-5.67,-6.43,-6.47,0,*6C
1517256374.83,6786,9.81,73380.5,-5.65,-6.43,-6.43,0,*69
1517256376.05,6787,9.81,73390.0,-5.65,-6.43,-6.43,0,*68
1517256377.27,6788,9.81,73394.5,-5.65,-6.43,-6.43,0,*67
1517256378.48,6789,9.81,73402.8,-5.65,-6.47,-6.47,0,*66
1517256379.7,6790,9.81,73386.3,-5.65,-6.47,-6.47,0,*6E
1517256380.92,6791,9.81,73368.8,-5.65,-6.47,-6.51,0,*68
1517256382.13,6792,9.81,73326.5,-5.65,-6.47,-6.51,0,*6B
1517256383.33,6793,9.81,73330.5,-5.63,-6.47,-6.47,0,*6B
1517256384.55,6794,9.81,73366.3,-5.65,-6.51,-6.51,0,*6A
1517256385.74,6795,9.81,73380.3,-5.63,-6.39,-6.43,0,*60
1517256386.93,6796,9.81,73406.5,-5.63,-6.43,-6.39,0,*63
1517256388.15,6797,9.81,73372.5,-5.61,-6.39,-6.43,0,*60
1517256389.37,6798,9.81,73410.5,-5.61,-6.43,-6.43,0,*62
1517256390.6,6799,9.81,73424.5,-5.61,-6.43,-6.43,0,*63
1517256391.82,6800,9.81,73434.0,-5.61,-6.47,-6.43,0,*68
1517256393.04,6801,9.81,73428.3,-5.61,-6.55,-6.59,0,*61
1517256394.26,6802,9.81,73448.0,-5.61,-6.59,-6.69,0,*6D
1517256395.45,6803,9.81,73430.3,-5.63,-6.73,-6.73,0,*6D
1517256396.67,6804,9.88,73450.5,-5.61,-6.81,-6.85,0,*6C
1517256397.91,6805,9.81,73432.0,-5.61,-6.85,-6.93,0,*6E
1517256399.13,6806,9.81,73466.0,-5.63,-6.93,-6.85,0,*6F
1517256400.38,6807,9.81,73484.5,-5.63,-6.93,-6.93,0,*69
1517256401.62,6808,9.81,73456.3,-5.63,-6.93,-6.97,0,*62
1517256402.87,6809,9.81,73486.3,-5.63,-6.93,-6.93,0,*67
1517256404.12,6810,9.81,73444.8,-5.63,-6.93,-6.97,0,*6B
1517256405.39,6811,9.81,73442.3,-5.61,-6.93,-6.93,0,*6C
1517256406.6,6812,9.81,73454.8,-5.63,-6.85,-6.93,0,*6A
1517256407.85,6813,9.81,73480.5,-5.61,-6.85,-6.93,0,*69
1517256409.04,6814,9.88,73470.5,-5.63,-6.81,-6.85,0,*6F
1517256410.24,6815,9.81,73444.8,-5.63,-6.73,-6.85,0,*63
1517256411.46,6816,9.88,73454.3,-5.61,-6.73,-6.81,0,*66
1517256412.67,6817,9.81,73456.3,-5.61,-6.69,-6.73,0,*61
1517256413.86,6818,9.81,73446.0,-5.63,-6.69,-6.69,0,*67
1517256415.07,6819,9.81,73408.8,-5.61,-6.69,-6.69,0,*64
1517256416.29,6820,9.81,73414.8,-5.61,-6.69,-6.81,0,*68
1517256417.49,6821,9.81,73404.0,-5.63,-6.69,-6.81,0,*6B
1517256418.69,6822,9.81,73426.0,-5.63,-6.73,-6.81,0,*63
1517256419.89,6823,9.81,73398.5,-5.63,-6.81,-6.81,0,*6F
1517256421.16,6824,9.88,73444.3,-5.61,-6.93,-6.93,0,*6A
1517256422.35,6825,9.81,73418.8,-5.63,-6.73,-6.85,0,*60
1517256423.58,6826,9.81,73424.0,-5.61,-6.81,-6.81,0,*68
1517256424.81,6827,9.81,73444.8,-5.61,-6.81,-6.81,0,*69
1517256426.03,6828,9.81,73422.5,-5.61,-6.85,-6.81,0,*62
1517256427.25,6829,9.81,73424.5,-5.61,-6.85,-6.85,0,*67
1517256428.47,6830,9.81,73414.8,-5.61,-6.81,-6.73,0,*62
1517256429.67,6831,9.81,73388.8,-5.63,-6.73,-6.81,0,*61
1517256430.9,6832,9.81,73394.3,-5.61,-6.81,-6.85,0,*69
1517256432.09,6833,9.81,73426.0,-5.63,-6.81,-6.85,0,*6A
1517256433.33,6834,9.81,73468.3,-5.61,-6.85,-6.93,0,*6C
1517256434.61,6835,9.81,73482.8,-5.61,-6.93,-6.97,0,*6E
1517256435.8,6836,9.81,73446.3,-5.63,-6.85,-6.85,0,*6B
1517256436.99,6837,9.81,73446.5,-5.63,-6.85,-6.85,0,*6A
1517256438.19,6838,9.88,73436.5,-5.63,-6.81,-6.73,0,*68
1517256439.41,6839,9.81,73436.3,-5.61,-6.59,-6.59,0,*66
1517256440.63,6840,9.81,73428.0,-5.61,-6.55,-6.55,0,*68
1517256441.83,6841,9.81,73452.5,-5.63,-6.55,-6.47,0,*68
1517256443.05,6842,9.81,73454.0,-5.61,-6.47,-6.47,0,*6A
1517256444.27,6843,9.81,73412.3,-5.61,-6.47,-6.47,0,*6B
1517256445.49,6844,9.81,73400.3,-5.61,-6.47,-6.47,0,*6C
1517256446.71,6845,9.81,73334.5,-5.61,-6.47,-6.47,0,*6D
1517256447.93,6846,9.81,73352.8,-5.61,-6.47,-6.47,0,*6E
1517256449.15,6847,9.81,73408.0,-5.61,-6.47,-6.47,0,*6F
1517256450.37,6848,9.81,73408.5,-5.61,-6.43,-6.47,0,*64
1517256451.6,6849,9.88,73420.5,-5.61,-6.43,-6.47,0,*65
1517256452.82,6850,9.81,73400.5,-5.61,-6.43,-6.47,0,*6D
1517256454.04,6851,9.81,73442.8,-5.57,-6.35,-6.43,0,*6C
1517256455.26,6852,9.81,73422.3,-5.57,-6.35,-6.35,0,*6E
1517256456.46,6853,9.81,73402.3,-5.55,-6.35,-6.35,0,*6D
1517256457.68,6854,9.81,73420.8,-5.57,-6.43,-6.39,0,*65
1517256458.87,6855,9.81,73446.0,-5.55,-6.47,-6.47,0,*6B
1517256460.09,6856,9.81,73418.0,-5.57,-6.51,-6.43,0,*69
1517256461.28,6857,9.81,73430.5,-5.55,-6.55,-6.51,0,*6D
1517256462.48,6858,9.81,73426.8,-5.55,-6.51,-6.43,0,*65
1517256463.7,6859,9.81,73346.3,-5.57,-6.43,-6.51,0,*66
1517256464.89,6860,9.81,73374.8,-5.55,-6.39,-6.39,0,*6D
1517256466.08,6861,9.81,73348.5,-5.55,-6.47,-6.47,0,*6C
1517256467.26,6862,9.81,73342.8,-5.55,-6.39,-6.39,0,*6F
1517256468.45,6863,9.81,73288.0,-5.55,-6.39,-6.43,0,*63
1517256469.64,6864,9.81,73320.0,-5.55,-6.39,-6.39,0,*69
1517256470.86,6865,9.81,73400.5,-5.57,-6.51,-6.43,0,*69
1517256472.05,6866,9.88,73400.3,-5.55,-6.47,-6.47,0,*6B
1517256473.24,6867,9.81,73438.3,-5.55,-6.47,-6.47,0,*6A
1517256474.43,6868,9.88,73460.0,-5.55,-6.59,-6.59,0,*65
1517256475.62,6869,9.88,73476.5,-5.55,-6.59,-6.73,0,*6C
1517256476.84,6870,9.88,73480.5,-5.53,-6.73,-6.73,0,*6A
1517256478.06,6871,9.81,73474.5,-5.53,-6.85,-6.85,0,*6B
1517256479.25,6872,9.81,73468.5,-5.55,-6.77,-6.85,0,*63
1517256480.44,6873,9.81,73462.5,-5.55,-6.85,-6.85,0,*6F
1517256481.63,6874,9.81,73458.3,-5.55,-6.73,-6.77,0,*6C
1517256482.85,6875,9.81,73442.5,-5.53,-6.73,-6.73,0,*6F
1517256484.09,6876,9.81,73426.8,-5.53,-6.73,-6.63,0,*6D
1517256485.3,6877,9.81,73420.8,-5.57,-6.69,-6.77,0,*66
1517256486.49,6878,9.81,73424.5,-5.55,-6.73,-6.77,0,*60
1517256487.68,6879,9.81,73430.0,-5.55,-6.85,-6.85,0,*65
1517256488.92,6880,9.81,73432.8,-5.57,-6.89,-7.01,0,*60
1517256490.19,6881,9.81,73438.3,-5.57,-6.93,-7.01,0,*6A
1517256491.43,6882,9.88,73448.3,-5.55,-7.01,-7.01,0,*61
1517256492.67,6883,9.81,73446.3,-5.55,-7.01,-7.01,0,*60
1517256493.92,6884,9.88,73446.5,-5.57,-7.01,-7.05,0,*61
1517256495.14,6885,9.81,73440.8,-5.55,-6.89,-7.01,0,*67
1517256496.38,6886,9.88,73444.0,-5.57,-6.93,-6.89,0,*6C
1517256497.6,6887,9.81,73442.3,-5.55,-6.97,-6.89,0,*6B
1517256498.79,6888,9.81,73450.3,-5.55,-6.77,-6.85,0,*66
1517256500.02,6889,9.81,73452.0,-5.57,-6.81,-6.81,0,*68
1517256501.24,6890,9.81,73464.3,-5.57,-6.81,-6.81,0,*60
1517256502.47,6891,9.81,73460.8,-5.57,-6.81,-6.81,0,*61
1517256503.69,6892,9.81,73468.0,-5.57,-6.77,-6.81,0,*6B
1517256504.89,6893,9.81,73464.3,-5.55,-6.77,-6.73,0,*65
1517256506.11,6894,9.81,73464.5,-5.57,-6.81,-6.77,0,*6D
1517256507.29,6895,9.81,73464.3,-5.55,-6.85,-6.85,0,*67
1517256508.52,6896,9.81,73456.5,-5.57,-6.89,-6.81,0,*6E
1517256509.78,6897,9.81,73456.0,-5.57,-6.93,-7.01,0,*6D
1517256511.05,6898,9.88,73470.5,-5.57,-6.93,-7.01,0,*62
1517256512.32,6899,9.81,73480.0,-5.61,-7.05,-7.05,0,*6C
1517256513.57,6900,9.81,73488.3,-5.57,-7.05,-7.05,0,*68
1517256514.79,6901,9.88,73492.8,-5.57,-7.15,-7.15,0,*69
1517256516.03,6902,9.81,73486.3,-5.57,-7.15,-7.05,0,*6B
1517256517.29,6903,9.81,73454.3,-5.57,-7.05,-7.05,0,*6B
1517256518.54,6904,9.81,73428.0,-5.61,-7.05,-7.11,0,*6C
1517256519.8,6905,9.81,73408.8,-5.61,-7.05,-7.05,0,*68
1517256521.07,6906,9.81,73408.8,-5.61,-6.97,-6.97,0,*6B
1517256522.34,6907,9.81,73426.5,-5.61,-6.93,-6.93,0,*6A
1517256523.59,6908,9.81,73438.8,-5.61,-6.85,-6.93,0,*62